Bloomington, IN

1:40 PM EST on December 14, 2019 (GMT -0500)
Monroe County

Weather History for KBMG - September, 2019

Change the Weather History Date:

Wednesday, September 11, 2019

  Actual Average Record
Temperature  
Mean Temperature 79 °F 68 °F  
Max Temperature 88 °F 80 °F 98 °F (1996)
Min Temperature 70 °F 55 °F 43 °F (2017)
Degree Days  
Heating Degree Days 0 1  
Month to date heating degree days 7  
Since 1 July heating degree days 14  
Cooling Degree Days 14 4  
Month to date cooling degree days 55  
Year to date cooling degree days 872  
Growing Degree Days 29 (Base 50)    
Moisture  
Dew Point 69 °F    
Average Humidity 74    
Maximum Humidity 93    
Minimum Humidity 55    
Precipitation  
Precipitation 0.00 in 0.12 in 0.74 in (2010)
Month to date precipitation 1.19  
Year to date precipitation 34.38  
Sea Level Pressure  
Sea Level Pressure 30.16 in    
Wind  
Wind Speed 4 mph ()    
Max Wind Speed 8 mph    
Max Gust Speed -    
Visibility 9.6 miles    
Events      
T = Trace of Precipitation, MM = Missing Value Source: Averaged Metar Reports

Daily Weather History Graph

Daily Weather History Graph

Search for Another Location

Airport or City:

Astronomy

Sep. 11, 2019 Rise Set
Actual Time 7:23 AM EDT 8:01 PM EDT
Civil Twilight 6:57 AM EDT 8:28 PM EDT
Nautical Twilight 6:25 AM EDT 9:00 PM EDT
Astronomical Twilight 5:52 AM EDT 9:32 PM EDT
Moon 7:12 PM EDT (9/11) 4:47 AM EDT (9/11)
Length of Visible Light 13h 31m
Length of Day
12h 37m
Waxing Gibbous, 94% of the Moon is Illuminated
Sep 11
Waxing Gibbous
Sep 14
Full
Sep 21
Last Quarter
Sep 28
New
Oct 5
First Quarter

Hourly Weather History & Observations

Time (EDT) Temp. Heat Index Dew Point Humidity Pressure Visibility Wind Dir Wind Speed Gust Speed Precip Events Conditions
12:53 AM 75.9 °F - 68.0 °F 76% 30.15 in 10.0 mi SW 6.9 mph - N/A   Clear
1:53 AM 75.0 °F - 68.0 °F 79% 30.15 in 10.0 mi WSW 5.8 mph - N/A   Clear
2:53 AM 71.1 °F - 66.9 °F 87% 30.16 in 10.0 mi SSW 4.6 mph - N/A   Clear
3:53 AM 70.0 °F - 66.9 °F 90% 30.16 in 10.0 mi Calm Calm - N/A   Clear
4:53 AM 73.0 °F - 68.0 °F 84% 30.17 in 10.0 mi SW 4.6 mph - N/A   Clear
5:53 AM 71.1 °F - 66.9 °F 87% 30.17 in 10.0 mi WSW 3.5 mph - N/A   Clear
6:53 AM 72.0 °F - 66.9 °F 84% 30.18 in 10.0 mi SSW 4.6 mph - N/A   Clear
7:53 AM 72.0 °F - 66.9 °F 84% 30.20 in 10.0 mi WSW 5.8 mph - N/A   Clear
8:53 AM 73.9 °F - 68.0 °F 82% 30.21 in 10.0 mi South 4.6 mph - N/A   Clear
9:53 AM 75.9 °F - 69.1 °F 79% 30.22 in 10.0 mi SW 5.8 mph - N/A   Clear
10:53 AM 81.0 °F 84.1 °F 69.1 °F 67% 30.22 in 10.0 mi West 6.9 mph - N/A   Clear
11:53 AM 82.9 °F 86.5 °F 69.1 °F 63% 30.21 in 10.0 mi WSW 6.9 mph - N/A   Clear
12:53 PM 84.9 °F 88.2 °F 68.0 °F 57% 30.19 in 10.0 mi WSW 8.1 mph - N/A   Clear
1:53 PM 87.1 °F 91.3 °F 69.1 °F 55% 30.18 in 10.0 mi SW 8.1 mph - N/A   Clear
2:53 PM 88.0 °F 92.9 °F 70.0 °F 55% 30.16 in 10.0 mi WSW 8.1 mph - N/A   Scattered Clouds
3:53 PM 88.0 °F 92.9 °F 70.0 °F 55% 30.14 in 10.0 mi West 6.9 mph - N/A   Partly Cloudy
4:53 PM 87.1 °F 91.3 °F 69.1 °F 55% 30.12 in 10.0 mi WSW 4.6 mph - N/A   Clear
5:53 PM 87.1 °F 92.0 °F 70.0 °F 57% 30.11 in 10.0 mi WSW 3.5 mph - N/A   Clear
6:53 PM 84.9 °F 90.1 °F 71.1 °F 63% 30.10 in 10.0 mi SSW 5.8 mph - N/A   Clear
7:53 PM 79.0 °F - 73.0 °F 82% 30.09 in 10.0 mi Calm Calm - N/A   Clear
9:53 PM 73.0 °F - 69.1 °F 87% 30.10 in 10.0 mi Calm Calm - N/A   Clear
10:53 PM 71.1 °F - 69.1 °F 93% 30.10 in 7.0 mi Calm Calm - N/A   Clear
11:53 PM 72.0 °F - 69.1 °F 91% 30.09 in 4.0 mi Calm Calm - N/A   Clear